Time,TemperatureF,DewpointF,PressureIn,WindDirection,WindDirectionDegrees,WindSpeedMPH,WindSpeedGustMPH,Humidity,HourlyPrecipIn,Conditions,Clouds,dailyrainin,SoftwareType,DateUTC
2013-04-29 00:00:00,78.0,71.0,30.01,ESE,120,20.0,21.0,79,-99.99,,,-99.99,,2013-04-29 04:00:00,
2013-04-29 00:22:00,78.0,71.0,30.01,ESE,120,20.0,21.0,79,-99.99,,,-99.99,,2013-04-29 04:22:00,
2013-04-29 00:32:00,78.0,71.0,30.01,ESE,120,20.0,21.0,79,-99.99,,,-99.99,,2013-04-29 04:32:00,
2013-04-29 00:43:00,78.0,71.0,30.01,ESE,120,20.0,21.0,79,-99.99,,,-99.99,,2013-04-29 04:43:00,
2013-04-29 00:52:00,78.0,71.0,30.01,ESE,120,20.0,21.0,79,-99.99,,,-99.99,,2013-04-29 04:52:00,
2013-04-29 01:00:00,78.0,69.0,29.99,SE,130,24.0,26.0,72,-99.99,,,-99.99,,2013-04-29 05:00:00,
2013-04-29 01:22:00,78.0,69.0,29.99,SE,130,24.0,26.0,72,-99.99,,,-99.99,,2013-04-29 05:22:00,
2013-04-29 01:32:00,78.0,69.0,29.99,SE,130,24.0,26.0,72,-99.99,,,-99.99,,2013-04-29 05:32:00,
2013-04-29 01:42:00,78.0,69.0,29.99,SE,130,24.0,26.0,72,-99.99,,,-99.99,,2013-04-29 05:42:00,
2013-04-29 01:52:00,78.0,69.0,29.99,SE,130,24.0,26.0,72,-99.99,,,-99.99,,2013-04-29 05:52:00,
2013-04-29 02:00:00,78.0,71.0,29.97,ESE,120,22.0,24.0,77,-99.99,,,-99.99,,2013-04-29 06:00:00,
2013-04-29 02:21:00,78.0,71.0,29.97,ESE,120,22.0,24.0,77,-99.99,,,-99.99,,2013-04-29 06:21:00,
2013-04-29 02:32:00,78.0,71.0,29.97,ESE,120,22.0,24.0,77,-99.99,,,-99.99,,2013-04-29 06:32:00,
2013-04-29 02:41:00,78.0,71.0,29.97,ESE,120,22.0,24.0,77,-99.99,,,-99.99,,2013-04-29 06:41:00,
2013-04-29 02:51:00,78.0,71.0,29.97,ESE,120,22.0,24.0,77,-99.99,,,-99.99,,2013-04-29 06:51:00,
2013-04-29 03:00:00,78.0,71.0,29.97,SE,140,23.0,26.0,79,-99.99,,,-99.99,,2013-04-29 07:00:00,
2013-04-29 03:21:00,78.0,71.0,29.97,SE,140,23.0,26.0,79,-99.99,,,-99.99,,2013-04-29 07:21:00,
2013-04-29 03:31:00,78.0,71.0,29.97,SE,140,23.0,26.0,79,-99.99,,,-99.99,,2013-04-29 07:31:00,
2013-04-29 03:41:00,78.0,71.0,29.97,SE,140,23.0,26.0,79,-99.99,,,-99.99,,2013-04-29 07:41:00,
2013-04-29 03:52:00,78.0,71.0,29.97,SE,140,23.0,26.0,79,-99.99,,,-99.99,,2013-04-29 07:52:00,
2013-04-29 04:00:00,78.0,71.0,29.96,SSE,150,22.0,24.0,78,-99.99,,,-99.99,,2013-04-29 08:00:00,
2013-04-29 04:21:00,78.0,71.0,29.96,SSE,150,22.0,24.0,78,-99.99,,,-99.99,,2013-04-29 08:21:00,
2013-04-29 04:31:00,78.0,71.0,29.96,SSE,150,22.0,24.0,78,-99.99,,,-99.99,,2013-04-29 08:31:00,
2013-04-29 04:41:00,78.0,71.0,29.96,SSE,150,22.0,24.0,78,-99.99,,,-99.99,,2013-04-29 08:41:00,
2013-04-29 04:51:00,78.0,71.0,29.96,SSE,150,22.0,24.0,78,-99.99,,,-99.99,,2013-04-29 08:51:00,
2013-04-29 05:00:00,78.0,72.0,29.96,SE,140,21.0,22.0,80,-99.99,,,-99.99,,2013-04-29 09:00:00,
2013-04-29 05:21:00,78.0,72.0,29.96,SE,140,21.0,22.0,80,-99.99,,,-99.99,,2013-04-29 09:21:00,
2013-04-29 05:32:00,78.0,72.0,29.96,SE,140,21.0,22.0,80,-99.99,,,-99.99,,2013-04-29 09:32:00,
2013-04-29 05:42:00,78.0,72.0,29.96,SE,140,21.0,22.0,80,-99.99,,,-99.99,,2013-04-29 09:42:00,
2013-04-29 05:52:00,78.0,72.0,29.96,SE,140,21.0,22.0,80,-99.99,,,-99.99,,2013-04-29 09:52:00,
2013-04-29 06:00:00,78.0,72.0,29.96,SE,130,17.0,20.0,82,-99.99,,,-99.99,,2013-04-29 10:00:00,
2013-04-29 06:22:00,78.0,72.0,29.96,SE,130,17.0,20.0,82,-99.99,,,-99.99,,2013-04-29 10:22:00,
2013-04-29 06:32:00,78.0,72.0,29.96,SE,130,17.0,20.0,82,-99.99,,,-99.99,,2013-04-29 10:32:00,
2013-04-29 06:41:00,78.0,72.0,29.96,SE,130,17.0,20.0,82,-99.99,,,-99.99,,2013-04-29 10:41:00,
2013-04-29 06:52:00,78.0,72.0,29.96,SE,130,17.0,20.0,82,-99.99,,,-99.99,,2013-04-29 10:52:00,
2013-04-29 07:00:00,78.0,73.0,29.97,ESE,120,21.0,22.0,85,-99.99,,,-99.99,,2013-04-29 11:00:00,
2013-04-29 07:21:00,78.0,73.0,29.97,ESE,120,21.0,22.0,85,-99.99,,,-99.99,,2013-04-29 11:21:00,
2013-04-29 07:31:00,78.0,73.0,29.97,ESE,120,21.0,22.0,85,-99.99,,,-99.99,,2013-04-29 11:31:00,
2013-04-29 07:41:00,78.0,73.0,29.97,ESE,120,21.0,22.0,85,-99.99,,,-99.99,,2013-04-29 11:41:00,
2013-04-29 07:52:00,78.0,73.0,29.97,ESE,120,21.0,22.0,85,-99.99,,,-99.99,,2013-04-29 11:52:00,
2013-04-29 08:00:00,78.0,71.0,30.00,SE,130,16.0,17.0,80,-99.99,,,-99.99,,2013-04-29 12:00:00,
2013-04-29 08:21:00,78.0,71.0,30.00,SE,130,16.0,17.0,80,-99.99,,,-99.99,,2013-04-29 12:21:00,
2013-04-29 08:31:00,78.0,71.0,30.00,SE,130,16.0,17.0,80,-99.99,,,-99.99,,2013-04-29 12:31:00,
2013-04-29 08:41:00,78.0,71.0,30.00,SE,130,16.0,17.0,80,-99.99,,,-99.99,,2013-04-29 12:41:00,
2013-04-29 08:51:00,78.0,71.0,30.00,SE,130,16.0,17.0,80,-99.99,,,-99.99,,2013-04-29 12:51:00,
2013-04-29 09:00:00,79.0,75.0,30.00,ESE,120,17.0,18.0,87,-99.99,,,-99.99,,2013-04-29 13:00:00,
2013-04-29 09:21:00,79.0,75.0,30.00,ESE,120,17.0,18.0,87,-99.99,,,-99.99,,2013-04-29 13:21:00,
2013-04-29 09:31:00,79.0,75.0,30.00,ESE,120,17.0,18.0,87,-99.99,,,-99.99,,2013-04-29 13:31:00,
2013-04-29 09:41:00,79.0,75.0,30.00,ESE,120,17.0,18.0,87,-99.99,,,-99.99,,2013-04-29 13:41:00,
2013-04-29 09:51:00,79.0,75.0,30.00,ESE,120,17.0,18.0,87,-99.99,,,-99.99,,2013-04-29 13:51:00,
2013-04-29 10:00:00,79.0,74.0,30.01,SE,130,18.0,21.0,83,-99.99,,,-99.99,,2013-04-29 14:00:00,
2013-04-29 10:21:00,79.0,74.0,30.01,SE,130,18.0,21.0,83,-99.99,,,-99.99,,2013-04-29 14:21:00,
2013-04-29 10:31:00,79.0,74.0,30.01,SE,130,18.0,21.0,83,-99.99,,,-99.99,,2013-04-29 14:31:00,
2013-04-29 10:41:00,79.0,74.0,30.01,SE,130,18.0,21.0,83,-99.99,,,-99.99,,2013-04-29 14:41:00,
2013-04-29 10:51:00,79.0,74.0,30.01,SE,130,18.0,21.0,83,-99.99,,,-99.99,,2013-04-29 14:51:00,
2013-04-29 11:00:00,78.0,75.0,30.01,SE,140,26.0,29.0,91,-99.99,,,-99.99,,2013-04-29 15:00:00,
2013-04-29 11:21:00,78.0,75.0,30.01,SE,140,26.0,29.0,91,-99.99,,,-99.99,,2013-04-29 15:21:00,
2013-04-29 11:33:00,78.0,75.0,30.01,SE,140,26.0,29.0,91,-99.99,,,-99.99,,2013-04-29 15:33:00,
2013-04-29 11:42:00,78.0,75.0,30.01,SE,140,26.0,29.0,91,-99.99,,,-99.99,,2013-04-29 15:42:00,
2013-04-29 11:52:00,78.0,75.0,30.01,SE,140,26.0,29.0,91,-99.99,,,-99.99,,2013-04-29 15:52:00,
2013-04-29 12:00:00,74.0,71.0,30.00,East,100,30.0,31.0,92,-99.99,,,-99.99,,2013-04-29 16:00:00,
2013-04-29 12:23:00,74.0,71.0,30.00,East,100,30.0,31.0,92,-99.99,,,-99.99,,2013-04-29 16:23:00,
2013-04-29 12:32:00,74.0,71.0,30.00,East,100,30.0,31.0,92,-99.99,,,-99.99,,2013-04-29 16:32:00,
2013-04-29 12:42:00,74.0,71.0,30.00,East,100,30.0,31.0,92,-99.99,,,-99.99,,2013-04-29 16:42:00,
2013-04-29 12:52:00,74.0,71.0,30.00,East,100,30.0,31.0,92,-99.99,,,-99.99,,2013-04-29 16:52:00,
2013-04-29 13:00:00,74.0,74.0,30.01,East,80,15.0,16.0,99,-99.99,,,-99.99,,2013-04-29 17:00:00,
2013-04-29 13:22:00,74.0,74.0,30.01,East,80,15.0,16.0,99,-99.99,,,-99.99,,2013-04-29 17:22:00,
2013-04-29 13:31:00,74.0,74.0,30.01,East,80,15.0,16.0,99,-99.99,,,-99.99,,2013-04-29 17:31:00,
2013-04-29 13:42:00,74.0,74.0,30.01,East,80,15.0,16.0,99,-99.99,,,-99.99,,2013-04-29 17:42:00,
2013-04-29 13:52:00,74.0,74.0,30.01,East,80,15.0,16.0,99,-99.99,,,-99.99,,2013-04-29 17:52:00,
2013-04-29 14:00:00,70.0,66.0,30.02,SE,140,13.0,13.0,87,-99.99,,,-99.99,,2013-04-29 18:00:00,
2013-04-29 14:22:00,70.0,66.0,30.02,SE,140,13.0,13.0,87,-99.99,,,-99.99,,2013-04-29 18:22:00,
2013-04-29 14:31:00,70.0,66.0,30.02,SE,140,13.0,13.0,87,-99.99,,,-99.99,,2013-04-29 18:31:00,
2013-04-29 14:41:00,70.0,66.0,30.02,SE,140,13.0,13.0,87,-99.99,,,-99.99,,2013-04-29 18:41:00,
2013-04-29 14:51:00,70.0,66.0,30.02,SE,140,13.0,13.0,87,-99.99,,,-99.99,,2013-04-29 18:51:00,
2013-04-29 15:00:00,74.0,74.0,29.97,SSE,160,16.0,17.0,98,-99.99,,,-99.99,,2013-04-29 19:00:00,
2013-04-29 15:21:00,74.0,74.0,29.97,SSE,160,16.0,17.0,98,-99.99,,,-99.99,,2013-04-29 19:21:00,
2013-04-29 15:31:00,74.0,74.0,29.97,SSE,160,16.0,17.0,98,-99.99,,,-99.99,,2013-04-29 19:31:00,
2013-04-29 15:41:00,74.0,74.0,29.97,SSE,160,16.0,17.0,98,-99.99,,,-99.99,,2013-04-29 19:41:00,
2013-04-29 15:51:00,74.0,74.0,29.97,SSE,160,16.0,17.0,98,-99.99,,,-99.99,,2013-04-29 19:51:00,
2013-04-29 16:00:00,78.0,76.0,29.95,SSE,150,21.0,22.0,93,-99.99,,,-99.99,,2013-04-29 20:00:00,
2013-04-29 16:21:00,78.0,76.0,29.95,SSE,150,21.0,22.0,93,-99.99,,,-99.99,,2013-04-29 20:21:00,
2013-04-29 16:32:00,78.0,76.0,29.95,SSE,150,21.0,22.0,93,-99.99,,,-99.99,,2013-04-29 20:32:00,
2013-04-29 16:42:00,78.0,76.0,29.95,SSE,150,21.0,22.0,93,-99.99,,,-99.99,,2013-04-29 20:42:00,
2013-04-29 16:51:00,78.0,76.0,29.95,SSE,150,21.0,22.0,93,-99.99,,,-99.99,,2013-04-29 20:51:00,
2013-04-29 17:00:00,79.0,75.0,29.97,East,100,14.0,15.0,88,-99.99,,,-99.99,,2013-04-29 21:00:00,
2013-04-29 17:21:00,79.0,75.0,29.97,East,100,14.0,15.0,88,-99.99,,,-99.99,,2013-04-29 21:21:00,
2013-04-29 17:32:00,79.0,75.0,29.97,East,100,14.0,15.0,88,-99.99,,,-99.99,,2013-04-29 21:32:00,
2013-04-29 17:42:00,79.0,75.0,29.97,East,100,14.0,15.0,88,-99.99,,,-99.99,,2013-04-29 21:42:00,
2013-04-29 17:53:00,79.0,75.0,29.97,East,100,14.0,15.0,88,-99.99,,,-99.99,,2013-04-29 21:53:00,
2013-04-29 18:00:00,80.0,75.0,29.94,ESE,110,16.0,17.0,86,-99.99,,,-99.99,,2013-04-29 22:00:00,
2013-04-29 18:22:00,80.0,75.0,29.94,ESE,110,16.0,17.0,86,-99.99,,,-99.99,,2013-04-29 22:22:00,
2013-04-29 18:32:00,80.0,75.0,29.94,ESE,110,16.0,17.0,86,-99.99,,,-99.99,,2013-04-29 22:32:00,
2013-04-29 18:42:00,80.0,75.0,29.94,ESE,110,16.0,17.0,86,-99.99,,,-99.99,,2013-04-29 22:42:00,
2013-04-29 18:52:00,80.0,75.0,29.94,ESE,110,16.0,17.0,86,-99.99,,,-99.99,,2013-04-29 22:52:00,
2013-04-29 19:00:00,79.0,76.0,29.94,East,90,17.0,18.0,90,-99.99,,,-99.99,,2013-04-29 23:00:00,
2013-04-29 19:22:00,79.0,76.0,29.94,East,90,17.0,18.0,90,-99.99,,,-99.99,,2013-04-29 23:22:00,
2013-04-29 19:31:00,79.0,76.0,29.94,East,90,17.0,18.0,90,-99.99,,,-99.99,,2013-04-29 23:31:00,
2013-04-29 19:41:00,79.0,76.0,29.94,East,90,17.0,18.0,90,-99.99,,,-99.99,,2013-04-29 23:41:00,
2013-04-29 19:52:00,79.0,76.0,29.94,East,90,17.0,18.0,90,-99.99,,,-99.99,,2013-04-29 23:52:00,
2013-04-29 20:00:00,78.0,76.0,29.96,East,100,20.0,21.0,92,-99.99,,,-99.99,,2013-04-30 00:00:00,
2013-04-29 20:21:00,78.0,76.0,29.96,East,100,20.0,21.0,92,-99.99,,,-99.99,,2013-04-30 00:21:00,
2013-04-29 20:31:00,78.0,76.0,29.96,East,100,20.0,21.0,92,-99.99,,,-99.99,,2013-04-30 00:31:00,
2013-04-29 20:41:00,78.0,76.0,29.96,East,100,20.0,21.0,92,-99.99,,,-99.99,,2013-04-30 00:41:00,
2013-04-29 20:51:00,78.0,76.0,29.96,East,100,20.0,21.0,92,-99.99,,,-99.99,,2013-04-30 00:51:00,
2013-04-29 21:00:00,79.0,76.0,29.98,ESE,110,18.0,21.0,91,-99.99,,,-99.99,,2013-04-30 01:00:00,
2013-04-29 21:21:00,79.0,76.0,29.98,ESE,110,18.0,21.0,91,-99.99,,,-99.99,,2013-04-30 01:21:00,
2013-04-29 21:31:00,79.0,76.0,29.98,ESE,110,18.0,21.0,91,-99.99,,,-99.99,,2013-04-30 01:31:00,
2013-04-29 21:41:00,79.0,76.0,29.98,ESE,110,18.0,21.0,91,-99.99,,,-99.99,,2013-04-30 01:41:00,
2013-04-29 21:51:00,79.0,76.0,29.98,ESE,110,18.0,21.0,91,-99.99,,,-99.99,,2013-04-30 01:51:00,
2013-04-29 22:00:00,78.0,75.0,29.97,SE,130,23.0,25.0,89,-99.99,,,-99.99,,2013-04-30 02:00:00,
2013-04-29 22:21:00,78.0,75.0,29.97,SE,130,23.0,25.0,89,-99.99,,,-99.99,,2013-04-30 02:21:00,
2013-04-29 22:31:00,78.0,75.0,29.97,SE,130,23.0,25.0,89,-99.99,,,-99.99,,2013-04-30 02:31:00,
2013-04-29 22:41:00,78.0,75.0,29.97,SE,130,23.0,25.0,89,-99.99,,,-99.99,,2013-04-30 02:41:00,
2013-04-29 22:51:00,78.0,75.0,29.97,SE,130,23.0,25.0,89,-99.99,,,-99.99,,2013-04-30 02:51:00,
2013-04-29 23:00:00,76.0,73.0,29.97,South,180,30.0,31.0,90,-99.99,,,-99.99,,2013-04-30 03:00:00,
2013-04-29 23:21:00,76.0,73.0,29.97,South,180,30.0,31.0,90,-99.99,,,-99.99,,2013-04-30 03:21:00,
2013-04-29 23:32:00,76.0,73.0,29.97,South,180,30.0,31.0,90,-99.99,,,-99.99,,2013-04-30 03:32:00,
2013-04-29 23:42:00,76.0,73.0,29.97,South,180,30.0,31.0,90,-99.99,,,-99.99,,2013-04-30 03:42:00,
2013-04-29 23:52:00,76.0,73.0,29.97,South,180,30.0,31.0,90,-99.99,,,-99.99,,2013-04-30 03:52:00,